Content
SEND FEEDBACK

Daily
Averages
Monthly
Summary
Switzerland

ZERMATT, SWITZERLAND


Home > Europe > Switzerland
Elevation: 5282 feet     Latitude: 46 01N     Longitude: 007 45E

WEATHER
 
SELECT A DAY
Number of Records: 132,737;   Date Range: 7/1/96 - 7/9/14
 
SHARE

PRINT THIS DATA

[ ← Previous Day ]
WEATHER ALMANAC - MARCH 28, 2013
[ Next Day → ]
[ °C ]   °F
Weather ElementAverageHighLow
Temperature14.9 °F19.4 °F (12:55 pm)8.6 °F (1:55 am)
Dewpoint12.6 °F17.6 °F (7:55 pm)3 °F (1:00 am)
Humidity89.3 %100 % (4:55 am)65 % (1:00 am)
Barometer29.59 in29.62 in (10:55 am)29.56 in (3:55 am)
Wind Speed21.8 mph32.2 mph (4:55 pm)
Weather ElementAverage
Visibility0.6 mi
Wind DirectionSSW (196.6 °)

Weather ElementTotal
Precipitation---
Heating Degree Days51 (Base 65)
Averaged from 29 records on March 28, 2013
WEATHER CONDITIONS BREAKOUT
WIND DIRECTION BREAKOUT
WEATHER BY HOUR - MARCH 28, 2013
[ °C ]   °F
Local TimeTemperatureDewpointHumidityBarometerVisibilityWind DirectionWind SpeedGust SpeedPrecipitationEventsConditions
1:00 AM9.0 °F3.0 °F65 %9.0 miSSW (200°)10.4 mphScattered Clouds
1:55 AM8.6 °F5.0 °F85 %29.59 in2.5 miSSW (200°)10.4 mphMist
2:55 AM8.6 °F6.8 °F92 %29.59 in0.9 miSSW (200°)10.4 mphMist
3:55 AM8.6 °F6.8 °F92 %29.56 in0.9 miSouth (190°)10.4 mphMist
4:00 AM9.0 °F6.0 °F84 %1.0 miSouth (190°)10.4 mphMist
4:55 AM8.6 °F8.6 °F100 %29.56 in0.2 miSSW (200°)17.3 mphFogLight Freezing Fog
5:55 AM10.4 °F8.6 °F92 %29.59 in0.5 miSSW (210°)17.3 mphFogLight Freezing Fog
6:55 AM10.4 °F10.4 °F100 %29.56 in0.1 miSSW (210°)20.7 mphFogLight Freezing Fog
7:00 AM11.0 °F11.0 °F97 %0.0 miSSW (210°)20.7 mphFogHeavy Fog
7:55 AM12.2 °F12.2 °F100 %29.59 in0.5 miSSW (200°)21.9 mphFogLight Freezing Fog
8:55 AM15.8 °F12.2 °F86 %29.59 in0.5 miSouth (190°)18.4 mphFogLight Freezing Fog
9:55 AM15.8 °F12.2 °F86 %29.59 in0.2 miSouth (190°)16.1 mphFogLight Freezing Fog
10:00 AM16.0 °F12.0 °F78 %0.0 miSouth (190°)16.1 mphFogHeavy Fog
10:55 AM17.6 °F14.0 °F86 %29.62 in0.2 miSSW (200°)12.7 mphFog-SnowLight Snow
11:55 AM17.6 °F14.0 °F86 %29.62 in0.2 miSouth (190°)24.2 mphFog-SnowLight Snow
12:55 PM19.4 °F15.8 °F86 %29.59 in0.2 miSouth (190°)27.6 mphFog-SnowLight Snow
1:00 PM19.0 °F15.0 °F79 %0.0 miSouth (190°)27.6 mphSnowLight Snow
1:55 PM19.4 °F14.0 °F80 %29.62 in0.2 miSouth (180°)27.6 mphFog-SnowLight Snow
2:55 PM19.4 °F15.8 °F86 %29.59 in0.2 miSouth (190°)28.8 mphFog-SnowLight Snow
3:55 PM19.4 °F15.8 °F86 %29.59 in0.2 miSouth (190°)31.1 mphFog-SnowLight Snow
4:00 PM19.0 °F16.0 °F81 %0.0 miSouth (190°)31.1 mphSnowLight Snow
4:55 PM19.4 °F15.8 °F86 %29.59 in0.2 miSouth (190°)32.2 mphFog-SnowLight Snow
5:55 PM17.6 °F15.8 °F93 %29.59 in0.2 miSouth (190°)32.2 mphFog-SnowLight Snow
6:55 PM17.6 °F15.8 °F93 %29.59 in0.1 miSSW (200°)29.9 mphFog-SnowLight Snow
7:00 PM18.0 °F17.0 °F92 %0.0 miSSW (200°)29.9 mphSnowLight Snow
7:55 PM17.6 °F17.6 °F100 %29.62 in0.1 miSSW (200°)29.9 mphFog-SnowLight Snow
8:55 PM15.8 °F15.8 °F100 %29.62 in0.1 miSSW (210°)27.6 mphFog-SnowLight Snow
10:55 PM15.8 °F15.8 °F100 %29.62 in0.3 miSSW (210°)19.6 mphFog-SnowLight Snow
11:55 PM15.8 °F15.8 °F100 %29.59 in0.1 miSSW (200°)18.4 mphFog-SnowLight Snow
Hourly data recorded from LIMH, located miles away from Zermatt, Switzerland







STORIES FROM OUR PARTNERS